Weather in Kuzembetyevo

Russia / Republic of Tatarstan     55°37′55″N   52°45′27″E
temp.,
°C
wind,
m/s
gust,
m/s
humid.,
%
clouds,
%
prec.,
mm/h
press.,
hPa
HPBL,
m
17 april, sat
sat1700:00+5ne49705 0.0 1026225
03:00+3nne49740 0.0 1026202
06:00+3nne49701 0.0 1027268
09:00+8ne67482 0.0 1027615
12:00+11ne66352 0.0 10261084
15:00+12ne55311 0.0 10251189
18:00+9nne36482 0.0 1025143
21:00+6nne33570 0.0 102540
18 april, sun
sun1800:00+4nne22650 0.0 102423
03:00+3n22730 0.0 102512
06:00+4n25735 0.0 1025150
09:00+9nne46555 0.0 1025820
12:00+11ne674885 0.0 10251599
15:00+9ne6749100 0.0 10261363
18:00+7ne6940100 0.0 1027610
21:00+4ene71352100 0.0 1028676
19 april, mon
mon1900:00+2ene81352100 0.0 1029613
03:00+1ene71351100 0.0 1031587
06:000ene81453100 0.0 1032676
09:00+4e912360 0.0 10331281
12:00+6e910290 0.0 10321636
15:00+7e89270 0.0 10321738
18:00+5ene711340 0.0 1033641
21:00+2ene613420 0.0 1034403
20 april, tue
tue2000:000e511500 0.0 1035284
03:00−1e48590 0.0 1036182
06:00+1ese48510 0.0 1036325
09:00+5ese56310 0.0 10361020
12:00+8ese56270 0.0 10351250
15:00+9ese56260 0.0 10331321
18:00+7ese48360 0.0 1032218
21:00+4ese474677 0.0 1033108
21 april, wed
wed2100:00+3ese3549100 0.0 103377
03:00+1ese365155 0.0 103396
06:00+3se395210 0.0 1033281
09:00+8sse793171 0.0 1032809
12:00+12sse710255 0.0 10301222
15:00+13sse792480 0.0 10291413
18:00+11sse593598 0.0 1030228
21:00+7sse41046100 0.0 1030173